User: anonymous   Login
Location: Fort Wayne
(41.1310°N, 85.1290°W)
Time: 05:05:51
(UTC-05:00)
Language:

Cosmos 1980 - Orbit

View from above orbital plane
View from above orbital plane
View from above satellite
View from above satellite

Ground track
Ground track

The orbit data is extracted from the following two-line orbital elements,

1 19649U 88102A   16038.45117040 -.00000217  00000-0 -87787-4 0  9991
2 19649  71.0000  26.2866 0006403 324.1732  35.8960 14.14630240404468
Epoch (UTC): 07 February 2016 10:49:41
Eccentricity: 0.0006403
inclination: 71.0000°
perigee height: 839 km
apogee height: 848 km
right ascension of ascending node: 26.2866°
argument of perigee: 324.1732°
revolutions per day: 14.14630240
mean anomaly at epoch: 35.8960°
orbit number at epoch: 40446

The dashed part of the orbit path shows where the satellite is in the earth's shadow,  

DLR